TimeEDT,TemperatureF,Dew PointF,Humidity,Sea Level PressureIn,VisibilityMPH,Wind Direction,Wind SpeedMPH,Gust SpeedMPH,PrecipitationIn,Events,Conditions,WindDirDegrees,DateUTC
12:53 AM,78.1,73.9,87,29.88,10.0,SSW,16.1,23.0,N/A,,Scattered Clouds,210,2013-07-01 04:53:00
1:53 AM,79.0,73.0,82,29.88,10.0,SSW,15.0,21.9,N/A,,Scattered Clouds,210,2013-07-01 05:53:00
2:12 AM,78.8,73.4,83,29.88,10.0,SSW,16.1,25.3,N/A,,Mostly Cloudy,210,2013-07-01 06:12:00
2:27 AM,78.8,73.4,83,29.88,10.0,SSW,12.7,-,N/A,,Scattered Clouds,210,2013-07-01 06:27:00
2:34 AM,78.8,75.2,89,29.88,10.0,SSW,13.8,21.9,N/A,,Mostly Cloudy,200,2013-07-01 06:34:00
2:53 AM,79.0,73.9,84,29.88,10.0,SSW,17.3,25.3,N/A,,Mostly Cloudy,200,2013-07-01 06:53:00
3:53 AM,79.0,75.0,88,29.86,10.0,South,12.7,21.9,N/A,,Overcast,190,2013-07-01 07:53:00
4:39 AM,75.2,71.6,89,29.88,1.8,SSW,20.7,39.1,0.19,Rain,Heavy Rain,200,2013-07-01 08:39:00
4:48 AM,75.2,73.4,94,29.88,3.0,South,18.4,25.3,0.21,Rain,Light Rain,180,2013-07-01 08:48:00
4:53 AM,75.0,72.0,90,29.89,7.0,SSW,25.3,33.4,0.21,Rain-Thunderstorm,Light Thunderstorms and Rain,200,2013-07-01 08:53:00
5:00 AM,75.2,71.6,89,29.89,7.0,SSW,23.0,33.4,0.02,Rain-Thunderstorm,Thunderstorms and Rain,200,2013-07-01 09:00:00
5:10 AM,75.2,71.6,89,29.89,7.0,SSW,24.2,31.1,0.03,Rain,Light Rain,200,2013-07-01 09:10:00
5:31 AM,75.2,71.6,89,29.89,9.0,South,18.4,32.2,0.04,Rain,Light Rain,190,2013-07-01 09:31:00
5:41 AM,75.2,73.4,94,29.90,7.0,South,21.9,31.1,0.05,Rain,Rain,190,2013-07-01 09:41:00
5:53 AM,75.9,73.0,91,29.91,5.0,SSW,15.0,26.5,0.09,Rain,Rain,200,2013-07-01 09:53:00
6:16 AM,75.2,73.4,94,29.90,10.0,SSW,15.0,21.9,0.01,Rain,Light Rain,210,2013-07-01 10:16:00
6:53 AM,78.1,73.9,87,29.92,10.0,SSW,13.8,21.9,0.01,,Overcast,200,2013-07-01 10:53:00
7:53 AM,77.0,73.0,88,29.92,9.0,SSW,13.8,-,0.00,,Mostly Cloudy,210,2013-07-01 11:53:00
8:50 AM,80.6,73.4,79,29.92,10.0,South,10.4,-,N/A,,Overcast,190,2013-07-01 12:50:00
8:53 AM,80.1,73.9,81,29.93,10.0,South,15.0,20.7,N/A,,Mostly Cloudy,180,2013-07-01 12:53:00
9:25 AM,78.8,71.6,78,29.93,10.0,South,12.7,-,N/A,,Mostly Cloudy,190,2013-07-01 13:25:00
9:53 AM,80.1,73.0,79,29.94,10.0,South,13.8,-,N/A,,Scattered Clouds,190,2013-07-01 13:53:00
10:00 AM,80.6,73.4,79,29.93,10.0,SSW,13.8,-,N/A,,Mostly Cloudy,200,2013-07-01 14:00:00
10:41 AM,80.6,75.2,84,29.94,10.0,South,11.5,-,N/A,Thunderstorm,Mostly Cloudy,180,2013-07-01 14:41:00
10:53 AM,81.0,75.0,82,29.94,10.0,South,15.0,20.7,N/A,Thunderstorm,Mostly Cloudy,170,2013-07-01 14:53:00
11:00 AM,80.6,75.2,84,29.94,10.0,South,12.7,-,N/A,,Overcast,180,2013-07-01 15:00:00
11:40 AM,80.6,75.2,84,29.93,9.0,South,12.7,-,N/A,,Overcast,170,2013-07-01 15:40:00
11:53 AM,82.0,75.9,82,29.94,10.0,South,13.8,20.7,N/A,,Mostly Cloudy,170,2013-07-01 15:53:00
12:06 PM,80.6,75.2,84,29.93,10.0,South,12.7,20.7,N/A,,Mostly Cloudy,180,2013-07-01 16:06:00
12:36 PM,82.4,75.2,79,29.95,10.0,South,15.0,23.0,N/A,,Scattered Clouds,170,2013-07-01 16:36:00
12:53 PM,82.0,75.9,82,29.96,10.0,South,12.7,20.7,N/A,,Mostly Cloudy,180,2013-07-01 16:53:00
1:08 PM,80.6,75.2,84,29.96,10.0,WSW,12.7,-,N/A,,Overcast,240,2013-07-01 17:08:00
1:37 PM,73.4,71.6,94,29.98,1.2,SW,13.8,-,0.46,Rain,Light Rain,230,2013-07-01 17:37:00
1:41 PM,73.4,71.6,94,29.98,0.5,WSW,8.1,-,0.65,Fog-Rain,Heavy Rain,250,2013-07-01 17:41:00
1:49 PM,73.4,71.6,94,29.96,0.5,North,5.8,-,0.83,Fog-Rain,Heavy Rain,360,2013-07-01 17:49:00
1:53 PM,73.0,71.1,93,29.97,0.8,Calm,Calm,-,0.87,Rain,Rain,0,2013-07-01 17:53:00
2:06 PM,73.4,71.6,94,29.96,2.0,Calm,Calm,-,0.08,Rain,Light Rain,0,2013-07-01 18:06:00
2:13 PM,73.4,71.6,94,29.97,10.0,SSE,5.8,-,0.08,Rain,Light Rain,160,2013-07-01 18:13:00
2:45 PM,73.4,71.6,94,29.96,9.0,Variable,3.5,-,0.10,Rain,Light Rain,0,2013-07-01 18:45:00
2:53 PM,75.9,73.0,91,29.96,8.0,SSE,10.4,-,0.10,Rain,Light Rain,150,2013-07-01 18:53:00
3:02 PM,78.8,75.2,89,29.95,6.0,South,15.0,21.9,0.00,Rain,Light Rain,170,2013-07-01 19:02:00
3:45 PM,77.0,73.4,89,29.96,9.0,South,11.5,21.9,0.04,Rain,Light Rain,180,2013-07-01 19:45:00
3:53 PM,75.9,73.0,91,29.97,10.0,South,12.7,21.9,0.04,Rain,Light Rain,190,2013-07-01 19:53:00
4:16 PM,75.2,71.6,89,29.96,1.8,South,15.0,23.0,0.10,Rain,Heavy Rain,170,2013-07-01 20:16:00
4:25 PM,77.0,73.4,89,29.96,4.0,South,13.8,-,0.10,Rain,Light Rain,170,2013-07-01 20:25:00
4:53 PM,78.1,75.0,90,29.97,9.0,South,13.8,24.2,0.10,,Overcast,190,2013-07-01 20:53:00
5:23 PM,78.8,73.4,83,29.97,10.0,South,15.0,25.3,N/A,,Partly Cloudy,190,2013-07-01 21:23:00
5:53 PM,79.0,73.0,82,29.98,10.0,South,15.0,23.0,N/A,,Partly Cloudy,170,2013-07-01 21:53:00
6:53 PM,79.0,73.9,84,29.99,10.0,South,12.7,23.0,N/A,,Mostly Cloudy,180,2013-07-01 22:53:00
7:06 PM,78.8,73.4,83,29.98,10.0,South,16.1,23.0,N/A,,Mostly Cloudy,180,2013-07-01 23:06:00
7:28 PM,78.8,73.4,83,29.98,10.0,South,16.1,26.5,N/A,,Overcast,180,2013-07-01 23:28:00
7:40 PM,78.8,73.4,83,29.98,10.0,South,13.8,23.0,N/A,,Overcast,180,2013-07-01 23:40:00
7:53 PM,79.0,73.9,84,29.99,10.0,South,13.8,21.9,N/A,,Mostly Cloudy,180,2013-07-01 23:53:00
8:53 PM,79.0,73.0,82,30.01,10.0,South,15.0,26.5,0.00,,Mostly Cloudy,190,2013-07-02 00:53:00
9:10 PM,78.8,73.4,83,30.02,10.0,South,21.9,34.5,N/A,,Overcast,190,2013-07-02 01:10:00
9:49 PM,75.2,73.4,94,30.03,5.0,SSW,20.7,31.1,0.04,Rain,Rain,200,2013-07-02 01:49:00
9:53 PM,77.0,73.9,90,30.04,5.0,SSW,19.6,31.1,0.05,Rain,Rain,200,2013-07-02 01:53:00
10:03 PM,77.0,73.4,89,30.03,7.0,SSW,16.1,26.5,0.01,Rain,Light Rain,200,2013-07-02 02:03:00
10:19 PM,77.0,73.4,89,30.04,10.0,South,17.3,26.5,0.01,,Overcast,190,2013-07-02 02:19:00
10:36 PM,78.8,73.4,83,30.05,10.0,SSW,18.4,24.2,0.01,Rain,Light Rain,200,2013-07-02 02:36:00
10:46 PM,78.8,73.4,83,30.05,9.0,SSW,20.7,32.2,0.01,,Overcast,200,2013-07-02 02:46:00
10:53 PM,78.1,73.9,87,30.05,5.0,South,19.6,32.2,0.02,Rain,Rain,190,2013-07-02 02:53:00
10:58 PM,78.8,73.4,83,30.05,7.0,SSW,19.6,27.6,0.00,Rain-Thunderstorm,Light Rain,200,2013-07-02 02:58:00
11:15 PM,78.8,73.4,83,30.05,10.0,SSW,24.2,32.2,0.00,,Overcast,210,2013-07-02 03:15:00
11:53 PM,75.9,73.0,91,30.06,6.0,SSW,19.6,27.6,0.18,Rain,Rain,210,2013-07-02 03:53:00